Location: Unspecified
(0.0000°N, 0.0000°E)
Time: 09:12:59
(UTC+00:00)

Vanguard 2 Rocket - Pass Details

Date: 13 December 2018
Orbit: 554 x 3327 km, 32.9° (Epoch: 18 January)

Event Time Altitude Azimuth Distance (km) Brightness Sun altitude
Rises 04:14:30 0° 259° (W) 3,992 - -22.8°
Reaches altitude 10° 04:18:35 10° 276° (W) 2,581 - -21.8°
Maximum altitude 04:22:30 18° 319° (NW) 1,704 - -20.9°
Drops below altitude 10° 04:25:37 10° 5° (N) 1,978 - -20.2°
Exits shadow 04:25:54 - 8° (N) 2,046 8.5 -20.2°
Sets 04:28:14 0° 25° (NNE) 2,753 9.4 -19.6°
